Date String (YYYY-MM-DD hh:mm:ss) UTC,Instrument flags,Ambient pressure (hPa),Sample flow (lpm),Bypass flow (lpm),Sample temperature (°C),Ambient temperature (°C),ASC tube jacket temperature (°C),LED temperature (°C),Box temperature (°C),Sample RH (%),Span deviation,Mass concentration (μg/m³),Mass concentration (μg/m³),Mass concentration (μg/m³)
DateTimeUTC,F1_M11,P_M11,Q1_M11,Q2_M11,T1_M11,T2_M11,T3_M11,T4_M11,T5_M11,U1_M11,ZSPAN_M11,X0_M11,X2_M11,X1_M11
2021-10-20 01:00:00,,0825.9,5.01,0.00,28.2,27.4,00.0,37.6,29.8,15.7,0000.0,0010.02,0002.08,0000.99
2021-10-20 01:01:00,,0826.0,5.00,0.00,28.2,27.3,00.0,37.5,29.8,15.7,0000.0,0010.97,0002.08,0001.00
2021-10-20 01:02:00,,0826.0,4.99,0.00,28.1,27.3,00.0,37.5,29.8,15.7,0000.0,0012.03,0002.07,0001.02
2021-10-20 01:03:00,,0826.0,5.01,0.00,28.1,27.3,00.0,37.5,29.8,15.8,0000.0,0012.38,0002.06,0001.03
2021-10-20 01:04:00,,0826.0,4.99,0.00,28.1,27.3,00.0,37.5,29.8,15.8,0000.0,0012.79,0002.11,0001.06
2021-10-20 01:05:00,,0826.1,5.00,0.00,28.1,27.3,00.0,37.4,29.8,15.8,0000.0,0013.02,0002.15,0001.07
2021-10-20 01:06:00,,0826.2,5.00,0.00,28.0,27.2,00.0,37.4,29.7,15.8,0000.0,0013.07,0002.13,0001.08
2021-10-20 01:07:00,,0826.2,5.00,0.00,28.0,27.2,00.0,37.4,29.7,15.9,0000.0,0012.77,0002.13,0001.09
2021-10-20 01:08:00,,0826.2,5.00,0.00,28.0,27.2,00.0,37.4,29.7,15.9,0000.0,0011.66,0002.04,0001.09
2021-10-20 01:09:00,,0826.2,4.99,0.00,28.0,27.2,00.0,37.3,29.7,15.9,0000.0,0010.80,0002.09,0001.11
2021-10-20 01:10:00,,0826.2,5.00,0.00,28.0,27.2,00.0,37.3,29.7,15.9,0000.0,0010.89,0002.12,0001.13
2021-10-20 01:11:00,,0826.2,5.00,0.00,28.0,27.1,00.0,37.3,29.7,16.0,0000.0,0010.96,0002.11,0001.14
2021-10-20 01:12:00,,0826.2,5.01,0.00,28.0,27.1,00.0,37.3,29.6,16.0,0000.0,0010.47,0002.14,0001.20
2021-10-20 01:13:00,,0826.2,4.99,0.00,27.9,27.1,00.0,37.3,29.6,16.0,0000.0,0009.11,0002.20,0001.25
2021-10-20 01:14:00,,0826.2,5.00,0.00,27.9,27.0,00.0,37.2,29.5,16.0,0000.0,0008.15,0002.34,0001.32
2021-10-20 01:15:00,,0826.2,5.00,0.00,27.9,27.0,00.0,37.2,29.5,16.0,0000.0,0007.94,0002.48,0001.37
2021-10-20 01:16:00,,0826.3,5.02,0.00,27.9,27.0,00.0,37.2,29.5,16.1,0000.0,0007.87,0002.53,0001.43
2021-10-20 01:17:00,,0826.4,5.01,0.00,27.8,27.1,00.0,37.2,29.6,16.0,0000.0,0007.92,0002.57,0001.48
2021-10-20 01:18:00,,0826.5,5.00,0.00,27.9,27.1,00.0,37.2,29.5,16.0,0000.0,0008.18,0002.65,0001.52
2021-10-20 01:19:00,,0826.5,4.99,0.00,27.8,27.0,00.0,37.1,29.6,16.0,0000.0,0008.61,0002.74,0001.55
2021-10-20 01:20:00,,0826.5,5.00,0.00,27.8,27.0,00.0,37.1,29.6,15.9,0000.0,0008.43,0002.69,0001.55
2021-10-20 01:21:00,,0826.5,4.99,0.00,27.8,27.0,00.0,37.1,29.5,16.0,0000.0,0008.38,0002.68,0001.54
2021-10-20 01:22:00,,0826.5,5.00,0.00,27.8,27.0,00.0,37.1,29.5,16.0,0000.0,0008.20,0002.67,0001.53
2021-10-20 01:23:00,,0826.4,5.00,0.00,27.8,26.9,00.0,37.1,29.4,16.0,0000.0,0007.94,0002.71,0001.49
2021-10-20 01:24:00,,0826.5,5.00,0.00,27.7,26.9,00.0,37.1,29.4,16.1,0000.0,0008.11,0002.66,0001.44
2021-10-20 01:25:00,,0826.4,5.01,0.00,27.7,26.9,00.0,37.0,29.4,16.2,0000.0,0008.63,0002.56,0001.39
2021-10-20 01:26:00,,0826.4,5.00,0.00,27.7,26.8,00.0,37.0,29.3,16.2,0000.0,0008.73,0002.44,0001.34
2021-10-20 01:27:00,,0826.3,4.99,0.00,27.6,26.8,00.0,37.0,29.3,16.2,0000.0,0008.80,0002.40,0001.28
2021-10-20 01:28:00,,0826.3,5.01,0.00,27.6,26.7,00.0,37.0,29.2,16.3,0000.0,0008.65,0002.31,0001.23
2021-10-20 01:29:00,,0826.4,5.00,0.00,27.6,26.7,00.0,36.9,29.2,16.3,0000.0,0008.34,0002.16,0001.19
2021-10-20 01:30:00,,0826.4,5.01,0.00,27.5,26.6,00.0,36.9,29.2,16.3,0000.0,0008.35,0002.13,0001.16
2021-10-20 01:31:00,,0826.5,5.00,0.00,27.5,26.6,00.0,36.9,29.2,16.3,0000.0,0008.41,0002.19,0001.17
2021-10-20 01:32:00,,0826.5,4.99,0.00,27.5,26.6,00.0,36.8,29.1,16.4,0000.0,0008.20,0002.24,0001.18
2021-10-20 01:33:00,,0826.3,5.01,0.00,27.4,26.6,00.0,36.8,29.1,16.4,0000.0,0008.57,0002.29,0001.18
2021-10-20 01:34:00,,0826.3,5.00,0.00,27.4,26.5,00.0,36.8,29.0,16.4,0000.0,0009.39,0002.24,0001.20
2021-10-20 01:35:00,,0826.3,5.00,0.00,27.4,26.5,00.0,36.8,29.0,16.4,0000.0,0010.63,0002.27,0001.21
2021-10-20 01:36:00,,0826.2,5.01,0.00,27.3,26.4,00.0,36.7,29.0,16.5,0000.0,0010.21,0002.35,0001.23
2021-10-20 01:37:00,,0826.3,5.00,0.00,27.3,26.4,00.0,36.7,29.0,16.5,0000.0,0010.23,0002.47,0001.24
2021-10-20 01:38:00,,0826.4,5.01,0.00,27.3,26.4,00.0,36.7,29.0,16.5,0000.0,0010.62,0002.54,0001.26
2021-10-20 01:39:00,,0826.4,5.00,0.00,27.3,26.4,00.0,36.7,28.9,16.6,0000.0,0011.75,0002.66,0001.29
2021-10-20 01:40:00,,0826.5,4.99,0.00,27.3,26.4,00.0,36.6,28.9,16.6,0000.0,0012.37,0002.82,0001.32
2021-10-20 01:41:00,,0826.5,5.00,0.00,27.2,26.4,00.0,36.6,28.9,16.6,0000.0,0012.08,0002.89,0001.34
2021-10-20 01:42:00,,0826.5,5.01,0.00,27.2,26.4,00.0,36.6,28.9,16.6,0000.0,0012.49,0002.92,0001.34
2021-10-20 01:43:00,,0826.5,5.01,0.00,27.2,26.3,00.0,36.5,28.8,16.6,0000.0,0012.61,0002.92,0001.35
2021-10-20 01:44:00,,0826.5,5.00,0.00,27.2,26.3,00.0,36.5,28.8,16.6,0000.0,0012.25,0002.93,0001.36
2021-10-20 01:45:00,,0826.5,5.03,0.00,27.1,26.4,00.0,36.5,28.8,16.6,0000.0,0011.28,0002.91,0001.36
2021-10-20 01:46:00,,0826.5,4.99,0.00,27.1,26.3,00.0,36.5,28.8,16.6,0000.0,0010.33,0002.93,0001.38
2021-10-20 01:47:00,,0826.5,5.00,0.00,27.1,26.3,00.0,36.5,28.8,16.7,0000.0,0010.48,0002.91,0001.39
2021-10-20 01:48:00,,0826.6,5.00,0.00,27.1,26.3,00.0,36.4,28.7,16.7,0000.0,0010.32,0002.82,0001.39
2021-10-20 01:49:00,,0826.7,4.99,0.00,27.1,26.3,00.0,36.4,28.7,16.7,0000.0,0010.22,0002.77,0001.39
2021-10-20 01:50:00,,0826.7,5.01,0.00,27.0,26.3,00.0,36.4,28.7,16.7,0000.0,0009.22,0002.72,0001.39
2021-10-20 01:51:00,,0826.7,4.99,0.00,27.0,26.2,00.0,36.4,28.7,16.7,0000.0,0008.94,0002.63,0001.39
2021-10-20 01:52:00,,0826.7,5.02,0.00,27.0,26.2,00.0,36.3,28.7,16.7,0000.0,0009.01,0002.57,0001.39
2021-10-20 01:53:00,,0826.7,5.00,0.00,27.0,26.2,00.0,36.3,28.7,16.8,0000.0,0009.89,0002.51,0001.40
2021-10-20 01:54:00,,0826.7,5.00,0.00,27.0,26.3,00.0,36.3,28.8,16.8,0000.0,0009.74,0002.49,0001.41
2021-10-20 01:55:00,,0826.7,5.00,0.00,27.0,26.3,00.0,36.3,28.8,16.8,0000.0,0009.72,0002.48,0001.43
2021-10-20 01:56:00,,0826.7,4.99,0.00,27.0,26.3,00.0,36.3,28.8,16.8,0000.0,0009.83,0002.53,0001.44
2021-10-20 01:57:00,,0826.7,5.00,0.00,27.0,26.3,00.0,36.3,28.8,16.8,0000.0,0009.43,0002.54,0001.45
2021-10-20 01:58:00,,0826.7,4.99,0.00,27.0,26.3,00.0,36.3,28.8,16.8,0000.0,0009.06,0002.66,0001.47
2021-10-20 01:59:00,,0826.7,5.00,0.00,27.0,26.3,00.0,36.3,28.8,16.8,0000.0,0009.14,0002.66,0001.48
